RYR48VZ EDDB-LPPR

Flight info

Callsign RYR48VZ
Flight time N/A
Altitude 32000
Route KISUC1B/06L KISUC Z20 MAG Z92 ABGUS DCT LENDO DCT IDOSA UN857 TOLVU/N0446F330 DCT RAPOR DCT ESTOC UT300 PON UN872 ERIGA UZ218 FUJTI DCT ATLEN DCT INSID T326 ASPOR
Aircraft B738/M-SDE2E3FGHIRWXY/LB1

Departure

Time 2026-05-05 18:07
Airport Berlin Brandenburg Airport (EDDB)

Arrival

Time N/A
Airport Francisco de Sá Carneiro Airport (LPPR)
Time Latitude Longitude Altitude Speed Heading
2026-05-05 17:48 52.36808 13.50797 157 ft 0 kts 159°
2026-05-05 17:58 52.36812 13.50794 154 ft 3 kts 159°
2026-05-05 17:58 52.36837 13.50782 154 ft 4 kts 171°
2026-05-05 17:58 52.36864 13.50780 154 ft 4 kts 193°
2026-05-05 17:58 52.36885 13.50798 154 ft 3 kts 244°
2026-05-05 17:59 52.36888 13.50810 154 ft 0 kts 249°
2026-05-05 18:01 52.36888 13.50809 154 ft 0 kts 249°
2026-05-05 18:01 52.36881 13.50782 154 ft 6 kts 249°
2026-05-05 18:01 52.36857 13.50680 154 ft 13 kts 249°
2026-05-05 18:02 52.36818 13.50517 154 ft 16 kts 249°
2026-05-05 18:02 52.36778 13.50350 154 ft 15 kts 249°
2026-05-05 18:02 52.36741 13.50191 154 ft 15 kts 249°
2026-05-05 18:02 52.36728 13.50088 153 ft 7 kts 284°
2026-05-05 18:03 52.36730 13.50081 154 ft 0 kts 291°
2026-05-05 18:04 52.36732 13.50075 154 ft 3 kts 301°
2026-05-05 18:04 52.36773 13.50020 154 ft 11 kts 311°
2026-05-05 18:04 52.36769 13.49902 154 ft 11 kts 249°
2026-05-05 18:04 52.36732 13.49747 153 ft 19 kts 249°
2026-05-05 18:05 52.36691 13.49566 153 ft 13 kts 261°
2026-05-05 18:05 52.36744 13.49471 153 ft 12 kts 337°
2026-05-05 18:05 52.36824 13.49430 154 ft 13 kts
2026-05-05 18:05 52.36917 13.49539 153 ft 19 kts 39°
2026-05-05 18:06 52.37008 13.49657 154 ft 10 kts 19°
2026-05-05 18:06 52.37035 13.49651 154 ft 5 kts 355°
2026-05-05 18:06 52.37046 13.49672 154 ft 0 kts 67°
2026-05-05 18:06 52.37047 13.49676 154 ft 3 kts 67°
2026-05-05 18:07 52.37127 13.50015 154 ft 67 kts 70°
2026-05-05 18:07 52.37378 13.51072 154 ft 130 kts 69°
2026-05-05 18:07 52.37765 13.52695 339 ft 165 kts 69°
2026-05-05 18:07 52.38180 13.54439 1146 ft 164 kts 68°
2026-05-05 18:08 52.38589 13.56187 1926 ft 164 kts 68°
2026-05-05 18:08 52.38999 13.57918 2712 ft 161 kts 68°
2026-05-05 18:08 52.39416 13.59653 3302 ft 170 kts 67°
2026-05-05 18:08 52.39874 13.61555 3711 ft 190 kts 67°
2026-05-05 18:09 52.40673 13.63380 4034 ft 208 kts 33°
2026-05-05 18:09 52.42052 13.64289 4401 ft 221 kts 16°
2026-05-05 18:09 52.43568 13.65001 4680 ft 239 kts 16°
2026-05-05 18:09 52.45245 13.65816 4853 ft 265 kts 17°
2026-05-05 18:10 52.47041 13.66810 5419 ft 275 kts 18°
2026-05-05 18:10 52.48841 13.67884 6308 ft 275 kts 18°
2026-05-05 18:10 52.50658 13.68951 7033 ft 279 kts 13°
2026-05-05 18:10 52.52584 13.69092 7712 ft 280 kts 345°
2026-05-05 18:11 52.54339 13.67768 8452 ft 280 kts 319°
2026-05-05 18:11 52.55555 13.65311 9198 ft 278 kts 292°
2026-05-05 18:11 52.55946 13.62222 9877 ft 280 kts 266°
2026-05-05 18:11 52.55543 13.59043 10227 ft 296 kts 250°
2026-05-05 18:12 52.54763 13.55771 10415 ft 318 kts 246°
2026-05-05 18:12 52.53852 13.52318 10601 ft 339 kts 246°
2026-05-05 18:12 52.52885 13.48724 11073 ft 349 kts 246°
2026-05-05 18:12 52.51902 13.45059 11754 ft 351 kts 246°
2026-05-05 18:13 52.50936 13.41421 12505 ft 352 kts 246°
2026-05-05 18:13 52.49958 13.37712 13235 ft 355 kts 246°
2026-05-05 18:13 52.48979 13.33975 13867 ft 359 kts 246°
2026-05-05 18:13 52.47989 13.30186 14440 ft 363 kts 246°
2026-05-05 18:14 52.46995 13.26372 15074 ft 365 kts 246°
2026-05-05 18:14 52.45993 13.22525 15684 ft 368 kts 246°
2026-05-05 18:14 52.44983 13.18654 16274 ft 371 kts 246°
2026-05-05 18:14 52.43963 13.14747 16854 ft 374 kts 246°
2026-05-05 18:15 52.42934 13.10809 17442 ft 378 kts 246°
2026-05-05 18:15 52.41894 13.06836 18020 ft 381 kts 246°
2026-05-05 18:15 52.40842 13.02827 18527 ft 384 kts 246°
2026-05-05 18:15 52.39785 12.98803 19076 ft 385 kts 246°
2026-05-05 18:16 52.38720 12.94759 19590 ft 388 kts 246°
2026-05-05 18:16 52.37649 12.90698 20101 ft 390 kts 246°
2026-05-05 18:16 52.36570 12.86612 20621 ft 391 kts 246°
2026-05-05 18:16 52.35485 12.82514 21122 ft 393 kts 245°
2026-05-05 18:17 52.34394 12.78398 21608 ft 396 kts 245°
2026-05-05 18:17 52.33308 12.74309 22088 ft 397 kts 245°
2026-05-05 18:17 52.32202 12.70154 22561 ft 399 kts 245°
2026-05-05 18:17 52.31090 12.65984 23021 ft 401 kts 245°
2026-05-05 18:18 52.29969 12.61785 23464 ft 404 kts 245°
2026-05-05 18:18 52.28843 12.57577 23846 ft 405 kts 245°
2026-05-05 18:18 52.27707 12.53340 24233 ft 407 kts 245°
2026-05-05 18:18 52.26568 12.49098 24602 ft 408 kts 245°
2026-05-05 18:19 52.25423 12.44842 24973 ft 410 kts 245°
2026-05-05 18:19 52.24273 12.40574 25321 ft 412 kts 245°
2026-05-05 18:19 52.23112 12.36277 25635 ft 415 kts 245°
2026-05-05 18:19 52.21944 12.31958 25992 ft 416 kts 245°